Location: *
(44.3683°N, 6.6958°E)
Time: 10:50:33
(UTC+00:00)

COBE Rocket - Pass Details

Date: 14 October 2019
Orbit: 680 x 782 km, 97.1° (Epoch: 11 November)

Event Time Altitude Azimuth Distance (km) Brightness Sun altitude
Rises 17:45:02 0° 10° (N) 3,280 7.2 -10.3°
Reaches altitude 10° 17:47:23 10° 8° (N) 2,346 6.4 -10.8°
Maximum altitude 17:52:34 75° 285° (WNW) 808 4.3 -11.7°
Drops below altitude 10° 17:57:38 10° 200° (SSW) 2,297 6.7 -12.6°
Sets 17:59:55 0° 199° (SSW) 3,207 7.5 -13.0°
